contact:dominique.lefevre@mio.osupytheas.fr, maurice.libes@osupytheas.fr, didier.mallarino@osupytheas.fr
Project:EMSO http://www.emso-fr.org/EMSO-France
Depth: 2436.0 m
Title:EMSO Ligure Ouest : Data MII capteur AQUADOPP
Date,Latitude,Longitude,X_East,Y_North,Z_Up,Amplitude_X,Amplitude_Y,Amplitude_Z,Batterie,SoundSpeed,Heading,Pitch,Roll,Pressure,TIS,Speed,Direction
, degrees North, degrees East, m.s-1, m.s-1,m.s-1, 1, 1, 1, Volt, m.s-1, degree, degree, degree, dbar, degree_C, m.s-1, degree
2021-11-10T00:04:03,42.805,6.029,-0.006,-0.026,-0.027,102.0,101.0,101.0,13.4,1505.2,328.0,-0.7,1.8,2470.742,13.28,0.026,193.0
2021-11-10T00:07:03,42.805,6.029,0.029,-0.024,-0.026,102.0,101.0,102.0,13.4,1505.2,325.7,-0.8,1.8,2470.735,13.28,0.037,129.6
2021-11-10T00:10:03,42.805,6.029,0.022,-0.024,-0.025,102.0,101.0,101.0,13.4,1505.2,328.7,-0.8,1.8,2470.718,13.28,0.032,137.5
2021-11-10T00:13:03,42.805,6.029,0.027,-0.02,-0.026,102.0,101.0,101.0,13.3,1505.2,330.6,-0.7,1.8,2470.726,13.28,0.033,126.5
2021-11-10T00:16:03,42.805,6.029,0.009,-0.009,-0.018,101.0,101.0,101.0,13.3,1505.2,329.5,-0.8,1.8,2470.752,13.28,0.012,135.0
2021-11-10T00:19:03,42.805,6.029,0.053,-0.005,0.006,101.0,101.0,101.0,13.4,1505.2,331.6,-0.8,1.8,2470.731,13.28,0.053,95.4
2021-11-10T00:22:03,42.805,6.029,0.014,-0.027,-0.01,101.0,100.0,101.0,13.3,1505.2,331.1,-0.7,1.8,2470.696,13.28,0.03,152.6
2021-11-10T00:25:03,42.805,6.029,0.028,-0.017,-0.005,102.0,101.0,100.0,13.4,1505.2,328.9,-0.8,1.8,2470.708,13.28,0.032,121.3
2021-11-10T00:28:03,42.805,6.029,0.018,-0.018,0.003,101.0,101.0,100.0,13.4,1505.2,330.4,-0.8,1.8,2470.705,13.28,0.025,135.0
2021-11-10T00:31:03,42.805,6.029,0.035,-0.017,-0.042,101.0,101.0,101.0,13.4,1505.2,327.2,-0.8,1.8,2470.703,13.28,0.038,115.9
2021-11-10T00:34:03,42.805,6.029,0.036,-0.01,0.013,102.0,102.0,100.0,13.3,1505.2,330.7,-0.8,1.8,2470.695,13.28,0.037,105.5
2021-11-10T00:37:03,42.805,6.029,0.035,-0.015,0.007,102.0,102.0,100.0,13.4,1505.2,325.9,-0.7,1.8,2470.682,13.28,0.038,113.2
2021-11-10T00:40:03,42.805,6.029,0.032,-0.028,-0.024,102.0,101.0,100.0,13.4,1505.2,330.3,-0.8,1.8,2470.705,13.28,0.042,131.2
2021-11-10T00:43:03,42.805,6.029,0.021,-0.023,-0.004,102.0,101.0,100.0,13.4,1505.2,330.9,-0.8,1.8,2470.728,13.28,0.031,137.6
2021-11-10T00:46:03,42.805,6.029,-0.006,-0.001,-0.057,102.0,101.0,101.0,13.4,1505.2,327.5,-0.7,1.8,2470.699,13.28,0.006,260.5
2021-11-10T00:49:03,42.805,6.029,0.031,-0.01,0.0,103.0,102.0,100.0,13.3,1505.2,326.5,-0.7,1.8,2470.701,13.28,0.032,107.9
2021-11-10T00:52:03,42.805,6.029,0.002,-0.004,0.001,101.0,101.0,101.0,13.4,1505.2,329.1,-0.8,1.8,2470.668,13.28,0.004,153.4
2021-11-10T00:55:03,42.805,6.029,0.063,-0.002,0.004,102.0,102.0,100.0,13.4,1505.2,325.2,-0.7,1.8,2470.697,13.28,0.063,91.8
2021-11-10T00:58:03,42.805,6.029,0.034,-0.017,-0.026,101.0,101.0,100.0,13.4,1505.2,326.7,-0.8,1.8,2470.701,13.28,0.038,116.6
2021-11-10T01:04:03,42.805,6.029,0.023,0.004,0.035,103.0,104.0,102.0,13.3,1505.2,327.3,-0.7,1.8,2470.703,13.28,0.023,80.1
2021-11-10T01:07:03,42.805,6.029,0.042,-0.025,0.025,102.0,104.0,101.0,13.4,1505.2,327.0,-0.8,1.8,2470.708,13.28,0.048,120.8
2021-11-10T01:10:03,42.805,6.029,0.023,-0.017,0.003,103.0,102.0,101.0,13.3,1505.2,325.8,-0.8,1.8,2470.715,13.28,0.028,126.5
2021-11-10T01:13:03,42.805,6.029,0.021,-0.015,0.022,101.0,101.0,101.0,13.4,1505.2,327.4,-0.8,1.8,2470.741,13.28,0.025,125.5
2021-11-10T01:16:03,42.805,6.029,0.03,-0.019,0.001,101.0,100.0,102.0,13.4,1505.2,324.8,-0.8,1.8,2470.726,13.28,0.035,122.3
2021-11-10T01:19:03,42.805,6.029,0.024,-0.021,-0.023,100.0,102.0,101.0,13.3,1505.2,327.6,-0.8,1.8,2470.708,13.28,0.031,131.2
2021-11-10T01:22:03,42.805,6.029,0.041,-0.005,0.022,101.0,100.0,100.0,13.4,1505.2,329.0,-0.8,1.8,2470.687,13.28,0.041,97.0
2021-11-10T01:25:03,42.805,6.029,0.006,0.0,-0.011,101.0,101.0,100.0,13.4,1505.2,328.4,-0.8,1.8,2470.7,13.28,0.006,90.0
2021-11-10T01:28:03,42.805,6.029,0.018,-0.014,-0.01,101.0,100.0,101.0,13.3,1505.2,330.6,-0.7,1.8,2470.677,13.28,0.022,127.9
2021-11-10T01:31:03,42.805,6.029,0.022,-0.009,0.002,103.0,100.0,100.0,13.3,1505.2,331.8,-0.8,1.8,2470.68,13.28,0.023,112.2
2021-11-10T01:34:03,42.805,6.029,0.05,-0.005,-0.014,101.0,100.0,101.0,13.4,1505.2,330.6,-0.8,1.8,2470.669,13.28,0.05,95.7
2021-11-10T01:37:03,42.805,6.029,0.044,-0.013,0.017,102.0,99.0,102.0,13.4,1505.2,331.8,-0.7,1.8,2470.674,13.28,0.045,106.5
2021-11-10T01:40:03,42.805,6.029,0.019,0.003,0.007,101.0,101.0,101.0,13.4,1505.2,327.8,-0.8,1.8,2470.67,13.28,0.019,81.0
2021-11-10T01:43:03,42.805,6.029,0.044,-0.007,0.002,101.0,102.0,101.0,13.4,1505.2,330.9,-0.8,1.8,2470.682,13.28,0.044,99.0
2021-11-10T01:46:03,42.805,6.029,0.017,-0.006,-0.016,101.0,101.0,101.0,13.4,1505.2,327.6,-0.8,1.9,2470.667,13.28,0.018,109.4
2021-11-10T01:49:03,42.805,6.029,0.041,0.004,0.028,101.0,102.0,100.0,13.4,1505.2,324.7,-0.8,1.8,2470.743,13.28,0.041,84.4
2021-11-10T01:52:03,42.805,6.029,0.038,-0.026,-0.004,101.0,102.0,100.0,13.3,1505.2,331.4,-0.7,1.8,2470.699,13.28,0.046,124.4
2021-11-10T01:55:03,42.805,6.029,0.045,-0.007,-0.017,101.0,102.0,99.0,13.4,1505.2,327.1,-0.8,1.8,2470.685,13.28,0.045,98.8
2021-11-10T01:58:03,42.805,6.029,-0.001,-0.005,-0.008,101.0,101.0,100.0,13.4,1505.2,326.7,-0.8,1.8,2470.679,13.28,0.005,191.3
2021-11-10T02:04:03,42.805,6.029,0.032,-0.016,-0.022,102.0,100.0,100.0,13.3,1505.2,330.8,-0.8,1.8,2470.698,13.28,0.035,116.6
2021-11-10T02:07:03,42.805,6.029,0.034,-0.024,-0.014,102.0,100.0,101.0,13.3,1505.2,329.7,-0.8,1.8,2470.707,13.28,0.041,125.2
2021-11-10T02:10:03,42.805,6.029,0.037,-0.021,-0.035,102.0,101.0,100.0,13.3,1505.2,330.8,-0.8,1.8,2470.727,13.28,0.042,119.6
2021-11-10T02:13:03,42.805,6.029,0.052,-0.007,0.035,101.0,101.0,100.0,13.3,1505.2,327.0,-0.7,1.8,2470.737,13.28,0.052,97.7
2021-11-10T02:16:03,42.805,6.029,0.013,-0.007,-0.005,102.0,102.0,99.0,13.3,1505.2,327.5,-0.8,1.8,2470.657,13.28,0.014,118.3
2021-11-10T02:19:03,42.805,6.029,0.048,-0.023,0.025,101.0,101.0,101.0,13.4,1505.2,329.2,-0.8,1.8,2470.73,13.28,0.053,115.6
2021-11-10T02:22:03,42.805,6.029,0.049,-0.022,-0.043,101.0,101.0,101.0,13.4,1505.2,328.5,-0.7,1.8,2470.703,13.28,0.053,114.2
2021-11-10T02:25:03,42.805,6.029,0.045,-0.027,-0.015,100.0,100.0,101.0,13.4,1505.2,325.8,-0.7,1.9,2470.672,13.28,0.052,121.0
2021-11-10T02:28:03,42.805,6.029,0.06,-0.037,-0.034,101.0,101.0,100.0,13.4,1505.2,330.3,-0.7,1.8,2470.711,13.28,0.07,121.7
2021-11-10T02:31:03,42.805,6.029,0.049,-0.025,-0.004,101.0,103.0,100.0,13.4,1505.2,327.0,-0.8,1.9,2470.741,13.28,0.055,117.0
2021-11-10T02:34:03,42.805,6.029,0.045,-0.017,-0.011,102.0,101.0,100.0,13.3,1505.2,328.2,-0.7,1.8,2470.681,13.28,0.048,110.7
2021-11-10T02:37:03,42.805,6.029,0.025,-0.01,-0.017,101.0,101.0,100.0,13.3,1505.2,326.3,-0.7,1.8,2470.704,13.28,0.026,111.8
2021-11-10T02:40:03,42.805,6.029,0.005,-0.005,0.0,102.0,101.0,100.0,13.3,1505.2,326.8,-0.8,1.8,2470.648,13.28,0.007,135.0
2021-11-10T02:43:03,42.805,6.029,0.03,-0.015,-0.011,101.0,101.0,101.0,13.4,1505.2,327.6,-0.8,1.9,2470.686,13.28,0.033,116.6
2021-11-10T02:46:03,42.805,6.029,0.041,-0.026,-0.036,101.0,100.0,101.0,13.4,1505.2,326.4,-0.8,1.8,2470.65,13.28,0.048,122.4
2021-11-10T02:49:03,42.805,6.029,0.049,-0.023,-0.036,101.0,103.0,100.0,13.4,1505.2,332.0,-0.7,1.8,2470.677,13.28,0.054,115.1
2021-11-10T02:52:03,42.805,6.029,0.008,-0.025,-0.001,101.0,102.0,101.0,13.3,1505.2,326.5,-0.8,1.8,2470.672,13.28,0.026,162.3
2021-11-10T02:55:03,42.805,6.029,0.026,-0.026,-0.004,101.0,102.0,101.0,13.4,1505.2,331.5,-0.8,1.8,2470.695,13.28,0.036,135.0
2021-11-10T02:58:03,42.805,6.029,0.02,-0.012,0.015,103.0,103.0,99.0,13.3,1505.2,327.9,-0.7,1.8,2470.704,13.28,0.023,121.0
2021-11-10T03:04:03,42.805,6.029,0.018,-0.03,-0.044,100.0,103.0,101.0,13.4,1505.2,327.8,-0.7,1.8,2470.749,13.28,0.034,149.0
2021-11-10T03:07:03,42.805,6.029,0.037,-0.023,-0.037,101.0,101.0,101.0,13.4,1505.2,329.0,-0.7,1.8,2470.65,13.28,0.043,121.9
2021-11-10T03:10:03,42.805,6.029,0.037,-0.013,-0.007,101.0,100.0,101.0,13.4,1505.2,327.0,-0.7,1.8,2470.681,13.28,0.039,109.4
2021-11-10T03:13:03,42.805,6.029,0.042,-0.025,0.003,102.0,102.0,100.0,13.4,1505.2,327.8,-0.8,1.8,2470.662,13.28,0.048,120.8
2021-11-10T03:16:03,42.805,6.029,0.003,-0.019,-0.034,102.0,102.0,100.0,13.3,1505.2,329.4,-0.7,1.8,2470.688,13.28,0.019,171.0
2021-11-10T03:19:03,42.805,6.029,0.033,-0.025,-0.014,102.0,101.0,101.0,13.4,1505.2,326.3,-0.7,1.8,2470.69,13.28,0.041,127.1
2021-11-10T03:22:03,42.805,6.029,0.02,-0.021,-0.008,102.0,99.0,102.0,13.4,1505.2,327.4,-0.8,1.8,2470.638,13.28,0.028,136.4
2021-11-10T03:25:03,42.805,6.029,0.033,-0.026,-0.002,102.0,102.0,101.0,13.4,1505.2,327.9,-0.8,1.8,2470.71,13.28,0.042,128.2
2021-11-10T03:28:03,42.805,6.029,0.029,-0.015,-0.003,102.0,103.0,99.0,13.4,1505.2,328.2,-0.7,1.8,2470.678,13.28,0.032,117.4
2021-11-10T03:31:03,42.805,6.029,0.031,-0.01,-0.024,101.0,101.0,102.0,13.3,1505.2,328.8,-0.8,1.8,2470.667,13.28,0.032,107.9
2021-11-10T03:34:03,42.805,6.029,0.023,-0.012,-0.005,102.0,103.0,100.0,13.4,1505.2,328.2,-0.7,1.8,2470.681,13.28,0.025,117.6
2021-11-10T03:37:03,42.805,6.029,0.02,0.0,-0.004,101.0,101.0,100.0,13.4,1505.2,328.0,-0.8,1.8,2470.668,13.28,0.02,90.0
2021-11-10T03:40:03,42.805,6.029,0.023,-0.007,0.022,102.0,101.0,100.0,13.4,1505.2,329.4,-0.7,1.8,2470.662,13.28,0.024,106.9
2021-11-10T03:43:03,42.805,6.029,0.026,-0.028,-0.01,103.0,101.0,100.0,13.4,1505.2,327.4,-0.8,1.8,2470.703,13.28,0.038,137.1
2021-11-10T03:46:03,42.805,6.029,0.004,-0.021,-0.027,103.0,101.0,100.0,13.4,1505.2,331.2,-0.8,1.8,2470.715,13.28,0.021,169.2
2021-11-10T03:49:03,42.805,6.029,0.042,-0.021,0.027,102.0,101.0,100.0,13.4,1505.2,331.5,-0.8,1.8,2470.656,13.28,0.046,116.6
2021-11-10T03:52:03,42.805,6.029,0.026,-0.019,-0.001,102.0,101.0,100.0,13.4,1505.2,327.9,-0.8,1.8,2470.657,13.28,0.032,126.2
2021-11-10T03:55:03,42.805,6.029,0.008,-0.043,-0.04,101.0,102.0,100.0,13.4,1505.2,330.1,-0.8,1.9,2470.659,13.28,0.043,169.5
2021-11-10T03:58:03,42.805,6.029,0.029,-0.007,-0.021,102.0,101.0,101.0,13.3,1505.2,325.1,-0.8,1.8,2470.644,13.28,0.029,103.6
2021-11-10T04:04:03,42.805,6.029,0.043,-0.022,0.003,102.0,102.0,101.0,13.4,1505.2,332.2,-0.7,1.8,2470.687,13.28,0.048,117.1
2021-11-10T04:07:03,42.805,6.029,0.017,-0.011,-0.024,104.0,101.0,101.0,13.4,1505.2,328.9,-0.8,1.8,2470.699,13.28,0.02,122.9
2021-11-10T04:10:03,42.805,6.029,0.025,-0.023,-0.024,102.0,103.0,100.0,13.4,1505.2,326.6,-0.8,1.8,2470.702,13.28,0.033,132.6
2021-11-10T04:13:03,42.805,6.029,0.033,-0.006,-0.005,101.0,103.0,101.0,13.4,1505.2,327.3,-0.8,1.8,2470.654,13.28,0.033,100.3
2021-11-10T04:16:03,42.805,6.029,0.013,0.005,-0.025,102.0,101.0,100.0,13.4,1505.2,330.9,-0.7,1.8,2470.655,13.28,0.013,69.0
2021-11-10T04:19:03,42.805,6.029,0.01,-0.018,-0.025,102.0,101.0,101.0,13.4,1505.2,325.4,-0.8,1.9,2470.695,13.28,0.02,150.9
2021-11-10T04:22:03,42.805,6.029,0.028,-0.022,0.008,101.0,102.0,101.0,13.4,1505.2,327.9,-0.8,1.9,2470.673,13.28,0.035,128.2
2021-11-10T04:25:03,42.805,6.029,0.019,-0.024,-0.018,103.0,102.0,101.0,13.3,1505.2,329.2,-0.7,1.8,2470.645,13.28,0.03,141.6
2021-11-10T04:28:03,42.805,6.029,0.026,0.004,-0.007,102.0,100.0,100.0,13.3,1505.2,327.6,-0.8,1.8,2470.645,13.28,0.026,81.3
2021-11-10T04:31:03,42.805,6.029,0.006,-0.013,-0.011,100.0,102.0,101.0,13.4,1505.2,326.2,-0.8,1.8,2470.662,13.28,0.014,155.2
2021-11-10T04:34:03,42.805,6.029,0.03,-0.007,-0.013,101.0,102.0,101.0,13.3,1505.2,326.8,-0.7,1.8,2470.633,13.28,0.03,103.1
2021-11-10T04:37:03,42.805,6.029,0.061,-0.025,0.0,102.0,101.0,100.0,13.4,1505.2,328.0,-0.8,1.8,2470.651,13.28,0.065,112.3
2021-11-10T04:40:03,42.805,6.029,0.027,-0.009,-0.016,102.0,102.0,100.0,13.3,1505.2,328.9,-0.7,1.8,2470.651,13.28,0.028,108.4
2021-11-10T04:43:03,42.805,6.029,0.037,-0.039,-0.034,101.0,103.0,100.0,13.3,1505.2,330.9,-0.7,1.8,2470.661,13.28,0.053,136.5
2021-11-10T04:46:03,42.805,6.029,0.038,-0.013,-0.001,101.0,101.0,101.0,13.4,1505.2,331.3,-0.8,1.8,2470.637,13.28,0.04,108.9
2021-11-10T04:49:03,42.805,6.029,-0.003,-0.012,-0.015,103.0,100.0,100.0,13.4,1505.2,329.5,-0.8,1.8,2470.629,13.28,0.012,194.0
2021-11-10T04:52:03,42.805,6.029,0.041,-0.009,0.003,100.0,100.0,101.0,13.4,1505.2,325.0,-0.8,1.8,2470.634,13.28,0.041,102.4
2021-11-10T04:55:03,42.805,6.029,0.038,-0.055,-0.01,101.0,101.0,101.0,13.4,1505.2,330.3,-0.7,1.8,2470.642,13.28,0.066,145.4
2021-11-10T04:58:03,42.805,6.029,0.033,-0.018,-0.005,101.0,101.0,100.0,13.3,1505.2,329.4,-0.7,1.8,2470.676,13.28,0.037,118.6
2021-11-10T05:04:03,42.805,6.029,0.021,-0.015,-0.025,102.0,101.0,101.0,13.3,1505.2,330.8,-0.7,1.8,2470.684,13.28,0.025,125.5
2021-11-10T05:07:03,42.805,6.029,0.02,0.001,0.025,102.0,102.0,100.0,13.3,1505.2,327.3,-0.8,1.8,2470.655,13.28,0.02,87.1
2021-11-10T05:10:03,42.805,6.029,-0.002,-0.014,0.015,102.0,101.0,100.0,13.3,1505.2,330.4,-0.8,1.9,2470.689,13.28,0.014,188.1
2021-11-10T05:13:03,42.805,6.029,0.032,-0.024,-0.01,101.0,102.0,102.0,13.3,1505.2,326.3,-0.7,1.8,2470.635,13.28,0.04,126.9
2021-11-10T05:16:03,42.805,6.029,0.02,-0.031,-0.03,100.0,102.0,101.0,13.3,1505.2,325.3,-0.8,1.8,2470.663,13.28,0.036,147.2
2021-11-10T05:19:03,42.805,6.029,0.033,-0.012,0.002,100.0,101.0,101.0,13.3,1505.2,329.1,-0.8,1.8,2470.718,13.28,0.035,110.0
2021-11-10T05:22:03,42.805,6.029,0.029,-0.018,0.006,101.0,102.0,101.0,13.3,1505.2,326.5,-0.8,1.8,2470.649,13.28,0.034,121.8
2021-11-10T05:25:03,42.805,6.029,0.03,-0.007,-0.002,101.0,101.0,101.0,13.4,1505.2,325.8,-0.7,1.8,2470.66,13.28,0.03,103.1
2021-11-10T05:28:03,42.805,6.029,0.018,-0.009,-0.001,101.0,101.0,100.0,13.4,1505.2,325.1,-0.7,1.9,2470.636,13.28,0.02,116.6
2021-11-10T05:31:03,42.805,6.029,0.034,-0.017,-0.008,101.0,101.0,101.0,13.4,1505.2,326.7,-0.8,1.8,2470.61,13.28,0.038,116.6
2021-11-10T05:34:03,42.805,6.029,0.004,-0.02,-0.036,102.0,101.0,100.0,13.4,1505.2,327.7,-0.8,1.8,2470.623,13.28,0.02,168.7
2021-11-10T05:37:03,42.805,6.029,0.043,-0.015,0.012,101.0,102.0,101.0,13.4,1505.2,328.6,-0.7,1.8,2470.654,13.28,0.045,109.2
2021-11-10T05:40:03,42.805,6.029,0.036,-0.023,-0.007,101.0,102.0,100.0,13.3,1505.2,331.0,-0.8,1.8,2470.671,13.28,0.042,122.6
2021-11-10T05:43:03,42.805,6.029,0.026,-0.006,-0.003,101.0,101.0,101.0,13.3,1505.2,325.3,-0.8,1.8,2470.635,13.28,0.026,103.0
2021-11-10T05:46:03,42.805,6.029,0.059,-0.024,-0.009,102.0,100.0,101.0,13.4,1505.2,330.0,-0.8,1.8,2470.655,13.28,0.063,112.1
2021-11-10T05:49:03,42.805,6.029,0.027,-0.028,-0.043,101.0,102.0,101.0,13.3,1505.2,328.8,-0.8,1.8,2470.637,13.28,0.038,136.0
2021-11-10T05:52:03,42.805,6.029,0.029,0.0,0.006,102.0,101.0,101.0,13.3,1505.2,329.5,-0.7,1.9,2470.654,13.28,0.028,90.0
2021-11-10T05:55:03,42.805,6.029,0.04,-0.014,0.0,103.0,102.0,101.0,13.4,1505.2,328.9,-0.8,1.8,2470.639,13.28,0.042,109.3
2021-11-10T05:58:03,42.805,6.029,0.051,-0.031,-0.009,101.0,101.0,100.0,13.4,1505.2,325.6,-0.8,1.8,2470.625,13.28,0.059,121.3
2021-11-10T06:04:03,42.805,6.029,0.044,-0.007,-0.002,101.0,101.0,101.0,13.4,1505.2,327.1,-0.8,1.8,2470.706,13.28,0.044,99.0
2021-11-10T06:07:03,42.805,6.029,0.055,-0.044,-0.018,102.0,103.0,99.0,13.3,1505.2,326.1,-0.7,1.8,2470.684,13.28,0.07,128.7
2021-11-10T06:10:03,42.805,6.029,0.038,-0.018,0.012,101.0,101.0,101.0,13.4,1505.2,327.6,-0.7,1.8,2470.673,13.28,0.042,115.3
2021-11-10T06:13:03,42.805,6.029,0.03,-0.028,-0.014,101.0,101.0,100.0,13.4,1505.2,331.4,-0.7,1.8,2470.679,13.28,0.041,133.0
2021-11-10T06:16:03,42.805,6.029,0.051,-0.045,-0.037,100.0,102.0,102.0,13.4,1505.2,330.7,-0.8,1.8,2470.688,13.28,0.068,131.4
2021-11-10T06:19:03,42.805,6.029,0.042,-0.007,-0.013,102.0,101.0,100.0,13.3,1505.2,332.0,-0.8,1.9,2470.653,13.28,0.042,99.5
2021-11-10T06:22:03,42.805,6.029,0.032,-0.009,-0.004,102.0,102.0,99.0,13.3,1505.2,330.9,-0.7,1.8,2470.61,13.28,0.033,105.7
2021-11-10T06:25:03,42.805,6.029,0.043,-0.018,-0.004,102.0,101.0,100.0,13.3,1505.2,328.2,-0.8,1.8,2470.654,13.28,0.046,112.7
2021-11-10T06:28:03,42.805,6.029,0.027,-0.006,0.001,101.0,101.0,100.0,13.4,1505.2,326.9,-0.8,1.8,2470.677,13.28,0.027,102.5
2021-11-10T06:31:03,42.805,6.029,0.047,-0.014,-0.021,102.0,102.0,99.0,13.3,1505.2,328.9,-0.7,1.8,2470.697,13.28,0.049,106.6
2021-11-10T06:34:03,42.805,6.029,0.032,-0.012,0.018,101.0,101.0,101.0,13.4,1505.2,329.2,-0.7,1.8,2470.636,13.28,0.034,110.6
2021-11-10T06:37:03,42.805,6.029,0.021,-0.012,0.01,102.0,102.0,100.0,13.4,1505.2,331.0,-0.8,1.8,2470.669,13.28,0.024,119.7
2021-11-10T06:40:03,42.805,6.029,0.019,-0.007,-0.012,101.0,102.0,100.0,13.3,1505.2,327.2,-0.8,1.8,2470.633,13.28,0.02,110.2
2021-11-10T06:43:03,42.805,6.029,0.049,-0.017,0.007,101.0,103.0,100.0,13.3,1505.2,325.6,-0.8,1.8,2470.701,13.28,0.051,109.1
2021-11-10T06:46:03,42.805,6.029,0.038,-0.029,-0.008,100.0,101.0,101.0,13.4,1505.2,327.2,-0.7,1.8,2470.649,13.28,0.047,127.3
2021-11-10T06:49:03,42.805,6.029,0.041,-0.032,0.0,100.0,103.0,100.0,13.3,1505.2,325.9,-0.8,1.8,2470.669,13.28,0.052,128.0
2021-11-10T06:52:03,42.805,6.029,0.029,-0.04,-0.015,100.0,101.0,101.0,13.4,1505.2,325.3,-0.7,1.8,2470.655,13.28,0.049,144.1
2021-11-10T06:55:03,42.805,6.029,0.025,-0.042,-0.033,101.0,100.0,101.0,13.4,1505.2,331.4,-0.7,1.8,2470.667,13.28,0.048,149.2
2021-11-10T06:58:03,42.805,6.029,0.044,-0.022,0.0,101.0,101.0,101.0,13.3,1505.2,328.3,-0.8,1.9,2470.637,13.28,0.049,116.6
2021-11-10T07:04:03,42.805,6.029,0.04,-0.029,-0.015,101.0,102.0,101.0,13.3,1505.2,328.9,-0.8,1.8,2470.703,13.28,0.049,125.9
2021-11-10T07:07:03,42.805,6.029,0.02,-0.023,-0.012,102.0,101.0,100.0,13.3,1505.2,327.6,-0.8,1.8,2470.695,13.28,0.03,139.0
2021-11-10T07:10:03,42.805,6.029,0.034,-0.013,-0.017,101.0,101.0,101.0,13.4,1505.2,327.2,-0.7,1.8,2470.709,13.28,0.036,110.9
2021-11-10T07:13:03,42.805,6.029,0.043,-0.041,-0.008,102.0,101.0,99.0,13.3,1505.2,328.3,-0.8,1.8,2470.661,13.28,0.059,133.6
2021-11-10T07:16:03,42.805,6.029,0.044,-0.031,-0.013,100.0,101.0,100.0,13.4,1505.2,331.0,-0.7,1.8,2470.717,13.28,0.053,125.2
2021-11-10T07:19:03,42.805,6.029,0.046,-0.023,-0.013,101.0,101.0,100.0,13.4,1505.2,325.6,-0.7,1.8,2470.695,13.28,0.051,116.6
2021-11-10T07:22:03,42.805,6.029,0.025,-0.013,-0.004,102.0,101.0,101.0,13.4,1505.2,325.9,-0.8,1.9,2470.685,13.28,0.028,117.5
2021-11-10T07:25:03,42.805,6.029,0.037,-0.009,0.007,102.0,100.0,101.0,13.4,1505.2,326.3,-0.7,1.8,2470.693,13.28,0.038,103.7
2021-11-10T07:28:03,42.805,6.029,0.041,-0.028,-0.003,101.0,102.0,101.0,13.4,1505.2,328.8,-0.8,1.8,2470.729,13.28,0.049,124.3
2021-11-10T07:31:03,42.805,6.029,0.043,-0.021,0.006,102.0,100.0,101.0,13.4,1505.2,327.8,-0.8,1.8,2470.669,13.28,0.047,116.0
2021-11-10T07:34:03,42.805,6.029,0.037,-0.01,-0.026,102.0,102.0,100.0,13.4,1505.2,329.4,-0.8,1.8,2470.676,13.28,0.038,105.1
2021-11-10T07:37:03,42.805,6.029,0.043,-0.014,0.003,102.0,100.0,100.0,13.4,1505.2,328.3,-0.7,1.8,2470.685,13.28,0.045,108.0
2021-11-10T07:40:03,42.805,6.029,0.028,-0.013,-0.003,101.0,101.0,101.0,13.3,1505.2,330.4,-0.8,1.8,2470.685,13.28,0.03,114.9
2021-11-10T07:43:03,42.805,6.029,0.033,-0.034,-0.023,101.0,101.0,100.0,13.4,1505.2,325.9,-0.8,1.8,2470.712,13.28,0.047,135.9
2021-11-10T07:46:03,42.805,6.029,0.015,-0.016,-0.02,101.0,101.0,100.0,13.4,1505.2,326.2,-0.7,1.8,2470.68,13.28,0.021,136.9
2021-11-10T07:49:03,42.805,6.029,0.039,-0.026,0.005,102.0,101.0,100.0,13.4,1505.2,328.7,-0.7,1.8,2470.69,13.28,0.046,123.7
2021-11-10T07:52:03,42.805,6.029,0.032,-0.023,-0.02,101.0,101.0,100.0,13.4,1505.2,329.0,-0.8,1.8,2470.719,13.28,0.039,125.7
2021-11-10T07:55:03,42.805,6.029,0.021,-0.02,-0.002,101.0,101.0,100.0,13.4,1505.2,331.6,-0.8,1.8,2470.718,13.28,0.028,133.6
2021-11-10T07:58:03,42.805,6.029,0.052,-0.038,-0.029,101.0,101.0,100.0,13.3,1505.2,328.5,-0.8,1.8,2470.691,13.28,0.064,126.2
2021-11-10T08:04:03,42.805,6.029,0.015,-0.035,-0.051,101.0,101.0,101.0,13.3,1505.2,330.3,-0.7,1.8,2470.709,13.28,0.038,156.8
2021-11-10T08:07:03,42.805,6.029,0.048,-0.014,0.022,101.0,101.0,100.0,13.4,1505.2,329.0,-0.7,1.8,2470.78,13.28,0.05,106.3
2021-11-10T08:10:03,42.805,6.029,0.049,-0.018,-0.019,101.0,101.0,100.0,13.3,1505.2,325.3,-0.8,1.8,2470.794,13.28,0.052,110.2
2021-11-10T08:13:03,42.805,6.029,0.042,-0.012,-0.01,101.0,101.0,100.0,13.4,1505.2,325.9,-0.8,1.8,2470.738,13.28,0.043,105.9
2021-11-10T08:16:03,42.805,6.029,0.028,-0.028,-0.015,100.0,102.0,102.0,13.4,1505.2,327.7,-0.7,1.8,2470.763,13.28,0.039,135.0
2021-11-10T08:19:03,42.805,6.029,0.031,-0.03,-0.015,101.0,101.0,100.0,13.4,1505.2,331.1,-0.8,1.8,2470.763,13.28,0.043,134.1
2021-11-10T08:22:03,42.805,6.029,0.061,-0.042,-0.033,102.0,100.0,100.0,13.4,1505.2,326.9,-0.8,1.8,2470.757,13.28,0.074,124.6
2021-11-10T08:25:03,42.805,6.029,0.032,-0.036,-0.008,101.0,101.0,100.0,13.3,1505.2,326.9,-0.8,1.8,2470.804,13.28,0.048,138.4
2021-11-10T08:28:03,42.805,6.029,0.042,-0.016,-0.002,101.0,102.0,100.0,13.4,1505.2,325.2,-0.7,1.8,2470.754,13.28,0.044,110.9
2021-11-10T08:31:03,42.805,6.029,0.059,-0.036,-0.003,100.0,101.0,101.0,13.3,1505.2,327.2,-0.8,1.8,2470.746,13.28,0.069,121.4
2021-11-10T08:34:03,42.805,6.029,0.035,-0.02,-0.035,102.0,101.0,100.0,13.4,1505.2,326.0,-0.8,1.8,2470.767,13.28,0.04,119.7
2021-11-10T08:37:03,42.805,6.029,0.029,-0.031,-0.004,101.0,101.0,101.0,13.4,1505.2,330.7,-0.8,1.8,2470.782,13.28,0.042,136.9
2021-11-10T08:40:03,42.805,6.029,0.041,-0.007,0.028,101.0,101.0,100.0,13.3,1505.2,325.0,-0.7,1.8,2470.703,13.28,0.041,99.7
2021-11-10T08:43:03,42.805,6.029,-0.011,-0.01,0.0,100.0,101.0,100.0,13.4,1505.2,327.3,-0.7,1.8,2470.779,13.28,0.014,227.7
2021-11-10T08:46:03,42.805,6.029,0.039,-0.026,-0.025,101.0,100.0,101.0,13.4,1505.2,331.4,-0.8,1.8,2470.766,13.28,0.046,123.7
2021-11-10T08:49:03,42.805,6.029,0.018,-0.025,-0.028,101.0,100.0,101.0,13.4,1505.2,326.4,-0.7,1.8,2470.768,13.28,0.03,144.2
2021-11-10T08:52:03,42.805,6.029,0.031,-0.022,-0.032,101.0,101.0,101.0,13.4,1505.2,327.1,-0.8,1.8,2470.757,13.28,0.038,125.4
2021-11-10T08:55:03,42.805,6.029,0.03,-0.001,-0.019,100.0,101.0,102.0,13.4,1505.2,328.2,-0.7,1.8,2470.768,13.28,0.03,91.9
2021-11-10T08:58:03,42.805,6.029,0.022,-0.038,-0.016,102.0,100.0,100.0,13.4,1505.2,328.0,-0.8,1.8,2470.768,13.28,0.043,149.9
2021-11-10T09:04:03,42.805,6.029,0.031,-0.018,-0.018,101.0,101.0,100.0,13.3,1505.2,327.7,-0.7,1.8,2470.827,13.28,0.035,120.1
2021-11-10T09:07:03,42.805,6.029,0.035,-0.026,-0.039,101.0,101.0,100.0,13.4,1505.2,328.9,-0.7,1.8,2470.794,13.28,0.043,126.6
2021-11-10T09:10:03,42.805,6.029,0.006,-0.027,-0.04,101.0,101.0,100.0,13.3,1505.2,331.2,-0.7,1.9,2470.826,13.28,0.027,167.5
2021-11-10T09:13:03,42.805,6.029,0.031,-0.028,-0.015,101.0,102.0,101.0,13.3,1505.2,326.0,-0.8,1.8,2470.817,13.28,0.041,132.1
2021-11-10T09:16:03,42.805,6.029,0.022,-0.005,0.003,101.0,100.0,100.0,13.3,1505.2,326.7,-0.8,1.8,2470.807,13.28,0.022,102.8
2021-11-10T09:19:03,42.805,6.029,0.015,-0.003,0.006,101.0,101.0,100.0,13.4,1505.2,327.4,-0.7,1.8,2470.791,13.28,0.015,101.3
2021-11-10T09:22:03,42.805,6.029,0.037,-0.03,-0.039,101.0,101.0,100.0,13.4,1505.2,332.0,-0.8,1.9,2470.801,13.28,0.047,129.0
2021-11-10T09:25:03,42.805,6.029,0.029,-0.013,0.001,101.0,101.0,100.0,13.4,1505.2,331.1,-0.7,1.9,2470.751,13.28,0.031,114.1
2021-11-10T09:28:03,42.805,6.029,0.023,-0.038,-0.033,102.0,101.0,100.0,13.4,1505.2,327.2,-0.7,1.8,2470.78,13.28,0.044,148.8
2021-11-10T09:31:03,42.805,6.029,0.029,-0.022,-0.008,101.0,101.0,100.0,13.4,1505.2,328.6,-0.8,1.8,2470.78,13.28,0.036,127.2
2021-11-10T09:34:03,42.805,6.029,0.046,-0.033,-0.041,101.0,100.0,100.0,13.4,1505.2,329.4,-0.7,1.8,2470.77,13.28,0.056,125.7
2021-11-10T09:37:03,42.805,6.029,0.033,-0.039,-0.01,100.0,101.0,100.0,13.4,1505.2,327.4,-0.8,1.8,2470.806,13.28,0.051,139.8
2021-11-10T09:40:03,42.805,6.029,0.011,-0.034,-0.044,100.0,101.0,100.0,13.4,1505.2,328.2,-0.8,1.8,2470.826,13.28,0.035,162.1
2021-11-10T09:43:03,42.805,6.029,0.038,-0.027,-0.026,101.0,101.0,100.0,13.4,1505.2,329.9,-0.8,1.8,2470.771,13.28,0.046,125.4
2021-11-10T09:46:03,42.805,6.029,0.006,-0.022,-0.004,100.0,100.0,101.0,13.4,1505.2,326.7,-0.8,1.8,2470.796,13.28,0.022,164.7
2021-11-10T09:49:03,42.805,6.029,0.008,-0.022,-0.043,101.0,101.0,100.0,13.4,1505.2,329.4,-0.7,1.9,2470.796,13.28,0.023,160.0
2021-11-10T09:52:03,42.805,6.029,0.038,-0.041,-0.023,101.0,100.0,100.0,13.4,1505.2,329.8,-0.8,1.8,2470.795,13.28,0.055,137.2
2021-11-10T09:55:03,42.805,6.029,0.036,-0.027,-0.024,101.0,100.0,100.0,13.3,1505.2,325.4,-0.7,1.8,2470.83,13.28,0.045,126.9